User: anonymous   Login
Location: Lake Runnemede Observatory
(43.4843°N, 72.3851°W)
Time: 02:48:01
(UTC-04:00)
Language:

SPOT 5 - Orbit

View from above orbital plane
View from above orbital plane
View from above satellite
View from above satellite

Ground track
Ground track

The orbit data is extracted from the following two-line orbital elements,

1 27421U 02021A   15187.85495700  .00000216  00000-0  11917-3 0  9992
2 27421 098.5096 242.7562 0001350 095.1612 352.7307 14.20895708682924
Epoch (UTC): 06 July 2015 20:31:08
Eccentricity: 0.0001350
inclination: 98.5096°
perigee height: 821 km
apogee height: 823 km
right ascension of ascending node: 242.7562°
argument of perigee: 95.1612°
revolutions per day: 14.20895708
mean anomaly at epoch: 352.7307°
orbit number at epoch: 68292

The dashed part of the orbit path shows where the satellite is in the earth's shadow,  

DLR